Regional Weather Roundup
Issued by NWS

Home | Current Version | Previous Version | Text Only | Print | Product List | Glossary On
Versions: 1 2 3 4 5 6 7 8 9 10 11 12 13 14 15 16 17 18 19 20 21 22 23 24 25 26 27 28 29 30 31 32 33 34 35 36 37 38 39 40 41 42 43 44 45 46 47 48 49 50
000
ASUS43 KOAX 290302
RWRNE

WEATHER ROUNDUP FOR NEBRASKA
NATIONAL WEATHER SERVICE OMAHA NE
1000 PM CDT MON JUL 28 2014

NOTES: SATELLITE DATA IS BEING USED TO AUGMENT CLOUD COVER ABOVE
       12000 FEET.
       "FAIR" INDICATES FEW OR NO CLOUDS BELOW 12,000 FEET WITH NO
       SIGNIFICANT WEATHER AND/OR OBSTRUCTIONS TO VISIBILITY.

  * THESE STATIONS DO NOT REPORT WEATHER SUCH AS RAIN...SNOW OR FOG.

NEZ001>004-019>022-054>056-290400-
NEBRASKA PANHANDLE

CITY           SKY/WX    TMP DP  RH WIND       PRES   REMARKS
SCOTTSBLUFF    CLEAR     74  60  61 E7        30.21R
ALLIANCE       CLEAR     75  58  55 E10       30.22R
CHADRON        CLEAR     75  55  49 NE9       30.21R
KIMBALL        CLOUDY    69  59  70 S9        30.27S
SIDNEY         CLOUDY    76  54  46 S9        30.26R
$$

NEZ057>060-069>072-079>082-290400-
SOUTHWEST NEBRASKA

CITY           SKY/WX    TMP DP  RH WIND       PRES   REMARKS
NORTH PLATTE   CLEAR     66  59  78 E6        30.21R
IMPERIAL       MOCLDY    75  57  53 SE10      30.22R
LEXINGTON      CLEAR     70  60  70 E9        30.21R
MCCOOK         PTCLDY    72  60  66 E8        30.21R
OGALLALA       PTCLDY    71  59  66 E8        30.22R
$$

NEZ005>010-023>029-035>040-094-290400-
NORTH CENTRAL NEBRASKA

CITY           SKY/WX    TMP DP  RH WIND       PRES   REMARKS
VALENTINE      CLEAR     69  52  54 NE8       30.23R
AINSWORTH      CLEAR     65  56  72 E6        30.23S
BROKEN BOW     CLEAR     66  58  75 E5        30.22S
O`NEILL        CLEAR     64  55  74 E7        30.23S
ORD            CLEAR     66  58  75 SE3       30.21R
THEDFORD       CLEAR     69  57  65 E5        30.23S
$$

NEZ041-046>049-061>064-073>077-083>087-290400-
SOUTH CENTRAL NEBRASKA

CITY           SKY/WX    TMP DP  RH WIND       PRES   REMARKS
GRAND ISLAND   CLEAR     66  57  72 E8        30.22S
AURORA         CLEAR     65  60  83 E6        30.22S
HASTINGS       CLEAR     69  56  62 E8        30.22R
HEBRON         CLEAR     65  56  74 E3        30.21R
HOLDREGE       PTCLDY    67  60  77 E8        30.21R
KEARNEY *      CLEAR     66  57  72 E7        30.22R
YORK           CLEAR     63  57  82 CALM      30.22S
$$

NEZ011>018-030>034-042>045-290400-
NORTHEAST NEBRASKA

CITY           SKY/WX    TMP DP  RH WIND       PRES   REMARKS
NORFOLK        CLEAR     64  53  67 NE3       30.22R
ALBION         CLEAR     63  55  76 NE7       30.22S
BLAIR          CLEAR     65  55  68 NW6       30.19S
COLUMBUS *     CLEAR     63  52  67 CALM      30.22R
FREMONT        CLEAR     65  57  73 NW3       30.20S
TEKAMAH        CLEAR     65  57  75 NW6       30.19R
WAYNE          CLEAR     61  57  89 CALM      30.22R
$$

NEZ050>053-065>068-078-088>093-290400-
SOUTHEAST NEBRASKA

CITY           SKY/WX    TMP DP  RH WIND       PRES   REMARKS
LINCOLN        CLEAR     66  53  63 N5        30.21R
OMAHA EPPLEY   CLEAR     68  57  68 CALM      30.18R
BEATRICE       CLEAR     62  56  83 N6        30.20S
FALLS CITY     CLEAR     67  56  67 NW3       30.17R
NEBRASKA CITY  CLEAR     65  54  67 NW6       30.19R
PLATTSMOUTH    CLEAR     66  55  68 NW3       30.18S
$$

NEZ044-045-051>053-067-290400-
OMAHA AREA

CITY           SKY/WX    TMP DP  RH WIND       PRES   REMARKS
OMAHA EPPLEY   CLEAR     68  57  68 CALM      30.18R
BLAIR          CLEAR     65  55  68 NW6       30.19S
FREMONT        CLEAR     65  57  73 NW3       30.20S
MILLARD        CLEAR     70  56  61 NW5       30.18S
OFFUTT AFB     CLEAR     65  57  76 CALM      30.18R
PLATTSMOUTH    CLEAR     66  55  68 NW3       30.18S
WAHOO          FAIR      64  57  79 NW6       30.20S
$$


USA.gov is the U.S. government's official web portal to all federal, state and local government web resources and services.